TRA431N EHRD-LIRZ

Flight info

Callsign TRA431N
Flight time 2h 1m
Altitude 39000
Route WOODY N872 NIK M624 REMBA DCT SUTAL DCT GTQ DCT DEVDI DCT ODINA DCT LOGDI DCT LOMED DCT VERUN Q25 LAKOX
Aircraft B738/M-SDE2E3FGHIRWXY/LB1

Departure

Time 2026-05-06 13:34
Airport Rotterdam The Hague Airport (EHRD)

Arrival

Time 2026-05-06 15:35
Airport Perugia San Francesco d'Assisi – Umbria International Airport (LIRZ)
Time Latitude Longitude Altitude Speed Heading
2026-05-06 12:59 51.95187 4.43406 -6 ft 0 kts 327°
2026-05-06 13:31 51.95200 4.43392 -6 ft 5 kts 327°
2026-05-06 13:31 51.95212 4.43332 -6 ft 8 kts 244°
2026-05-06 13:31 51.95174 4.43233 -6 ft 12 kts 236°
2026-05-06 13:32 51.95131 4.43102 -6 ft 14 kts 245°
2026-05-06 13:32 51.95111 4.43032 -6 ft 0 kts 249°
2026-05-06 13:32 51.95111 4.43031 -6 ft 1 kts 250°
2026-05-06 13:33 51.95107 4.42987 -6 ft 9 kts 271°
2026-05-06 13:33 51.95170 4.42885 -6 ft 14 kts 326°
2026-05-06 13:33 51.95224 4.42862 -6 ft 8 kts 47°
2026-05-06 13:33 51.95233 4.42886 -6 ft 0 kts 56°
2026-05-06 13:34 51.95347 4.43163 -6 ft 74 kts 57°
2026-05-06 13:34 51.95785 4.44270 -1 ft 154 kts 57°
2026-05-06 13:34 51.96418 4.45909 622 ft 180 kts 57°
2026-05-06 13:34 51.97050 4.47668 1719 ft 180 kts 58°
2026-05-06 13:35 51.97651 4.49412 2820 ft 177 kts 60°
2026-05-06 13:35 51.98250 4.51213 3613 ft 187 kts 61°
2026-05-06 13:35 51.98867 4.53132 4269 ft 196 kts 61°
2026-05-06 13:35 51.99464 4.55156 4958 ft 202 kts 70°
2026-05-06 13:36 51.99670 4.57494 5435 ft 224 kts 86°
2026-05-06 13:36 51.99518 4.60229 5602 ft 258 kts 97°
2026-05-06 13:36 51.99058 4.63038 6306 ft 266 kts 116°
2026-05-06 13:36 51.97714 4.65147 7055 ft 277 kts 153°
2026-05-06 13:37 51.95936 4.66405 7941 ft 282 kts 155°
2026-05-06 13:37 51.94049 4.67355 8698 ft 291 kts 178°
2026-05-06 13:37 51.92093 4.66615 9522 ft 293 kts 212°
2026-05-06 13:37 51.90645 4.64362 10377 ft 293 kts 233°
2026-05-06 13:38 51.89429 4.61561 10651 ft 317 kts 238°
2026-05-06 13:38 51.88173 4.58453 10888 ft 341 kts 237°
2026-05-06 13:38 51.86452 4.55736 11459 ft 355 kts 211°
2026-05-06 13:38 51.84179 4.54308 12350 ft 357 kts 198°
2026-05-06 13:39 51.81772 4.53270 13203 ft 360 kts 196°
2026-05-06 13:39 51.79314 4.52301 13929 ft 366 kts 195°
2026-05-06 13:39 51.76829 4.51335 14600 ft 370 kts 195°
2026-05-06 13:39 51.74316 4.50345 15318 ft 373 kts 195°
2026-05-06 13:40 51.71785 4.49332 16020 ft 377 kts 195°
2026-05-06 13:40 51.69229 4.48296 16681 ft 382 kts 195°
2026-05-06 13:40 51.66639 4.47238 17322 ft 386 kts 195°
2026-05-06 13:40 51.64019 4.46165 17995 ft 390 kts 195°
2026-05-06 13:41 51.61376 4.45080 18613 ft 394 kts 195°
2026-05-06 13:41 51.58719 4.43991 19300 ft 394 kts 195°
2026-05-06 13:41 51.56064 4.42903 19957 ft 395 kts 195°
2026-05-06 13:41 51.53397 4.41812 20597 ft 396 kts 195°
2026-05-06 13:42 51.50712 4.40714 21175 ft 399 kts 195°
2026-05-06 13:42 51.48010 4.39613 21717 ft 403 kts 195°
2026-05-06 13:42 51.45316 4.38515 22283 ft 405 kts 195°
2026-05-06 13:42 51.42582 4.37403 22873 ft 407 kts 195°
2026-05-06 13:43 51.39839 4.36196 23345 ft 411 kts 201°
2026-05-06 13:43 51.37213 4.34348 23770 ft 413 kts 207°
2026-05-06 13:43 51.34640 4.32268 24276 ft 414 kts 208°
2026-05-06 13:43 51.32063 4.30236 24724 ft 416 kts 207°
2026-05-06 13:44 51.29444 4.28227 25113 ft 419 kts 206°
2026-05-06 13:44 51.26805 4.26216 25591 ft 420 kts 206°
2026-05-06 13:44 51.24160 4.24206 26053 ft 421 kts 206°
2026-05-06 13:44 51.21489 4.22222 26413 ft 425 kts 202°
2026-05-06 13:45 51.18597 4.21205 26683 ft 431 kts 181°
2026-05-06 13:45 51.12855 4.23460 27547 ft 437 kts 151°
2026-05-06 13:45 51.10406 4.26337 27985 ft 439 kts 141°
2026-05-06 13:46 51.08081 4.29514 28326 ft 442 kts 140°
2026-05-06 13:46 51.05759 4.32751 28615 ft 446 kts 140°
2026-05-06 13:46 51.03423 4.35988 29011 ft 446 kts 140°
2026-05-06 13:46 51.01072 4.39204 29437 ft 446 kts 140°
2026-05-06 13:47 50.98699 4.42413 29650 ft 451 kts 141°
2026-05-06 13:47 50.96981 4.44721 29805 ft 453 kts 141°
2026-05-06 13:47 50.94573 4.47947 30190 ft 452 kts 141°
2026-05-06 13:47 50.92176 4.51151 30610 ft 450 kts 141°
2026-05-06 13:48 50.89790 4.54360 30898 ft 451 kts 139°
2026-05-06 13:48 50.87515 4.57761 31382 ft 448 kts 137°
2026-05-06 13:48 50.85326 4.61265 31757 ft 447 kts 135°
2026-05-06 13:48 50.83180 4.64750 32035 ft 448 kts 135°
2026-05-06 13:49 50.80995 4.68269 32361 ft 448 kts 136°
2026-05-06 13:49 50.78802 4.71750 32693 ft 447 kts 136°
2026-05-06 13:49 50.76590 4.75222 33030 ft 446 kts 136°
2026-05-06 13:49 50.74394 4.78653 33472 ft 443 kts 136°
2026-05-06 13:50 50.72199 4.82069 33771 ft 444 kts 136°
2026-05-06 13:50 50.69996 4.85493 33911 ft 447 kts 136°
2026-05-06 13:50 50.67776 4.88939 34128 ft 447 kts 137°
2026-05-06 13:50 50.65548 4.92336 34459 ft 444 kts 140°
2026-05-06 13:51 50.63203 4.95497 34693 ft 444 kts 142°
2026-05-06 13:51 50.60788 4.98556 34833 ft 447 kts 143°
2026-05-06 13:51 50.58373 5.01550 35034 ft 448 kts 143°
2026-05-06 13:51 50.55927 5.04575 35324 ft 446 kts 143°
2026-05-06 13:52 50.53498 5.07596 35561 ft 446 kts 143°
2026-05-06 13:52 50.51060 5.10648 35723 ft 448 kts 143°
2026-05-06 13:52 50.48631 5.13705 35907 ft 449 kts 143°
2026-05-06 13:52 50.46197 5.16775 36131 ft 449 kts 143°
2026-05-06 13:53 50.43765 5.19846 36357 ft 448 kts 143°
2026-05-06 13:53 50.41333 5.22916 36556 ft 449 kts 143°
2026-05-06 13:53 50.38899 5.25985 36742 ft 450 kts 143°
2026-05-06 13:53 50.36461 5.29053 36964 ft 450 kts 143°
2026-05-06 13:54 50.34025 5.32114 37166 ft 450 kts 143°
2026-05-06 13:54 50.31613 5.35141 37353 ft 450 kts 143°
2026-05-06 13:54 50.29173 5.38199 37525 ft 450 kts 144°
2026-05-06 13:54 50.26716 5.41272 37626 ft 453 kts 144°
2026-05-06 13:55 50.24255 5.44347 37774 ft 454 kts 144°
2026-05-06 13:55 50.21792 5.47420 38008 ft 453 kts 144°
2026-05-06 13:55 50.19335 5.50483 38215 ft 452 kts 144°
2026-05-06 13:55 50.16882 5.53537 38487 ft 449 kts 144°
2026-05-06 13:56 50.14444 5.56568 38720 ft 447 kts 144°
2026-05-06 13:56 50.12011 5.59587 38818 ft 448 kts 144°
2026-05-06 13:56 50.07103 5.65664 38847 ft 452 kts 144°
2026-05-06 13:57 50.02211 5.71707 38835 ft 452 kts 144°
2026-05-06 13:57 49.97312 5.77744 38831 ft 451 kts 144°
2026-05-06 13:58 49.92390 5.83792 38819 ft 450 kts 144°
2026-05-06 13:58 49.87487 5.89800 38824 ft 449 kts 144°
2026-05-06 13:59 49.82623 5.95746 38820 ft 448 kts 144°
2026-05-06 13:59 49.77825 6.01594 38824 ft 448 kts 144°
2026-05-06 14:00 49.72921 6.07558 38814 ft 448 kts 145°
2026-05-06 14:00 49.67948 6.13589 38823 ft 449 kts 145°
2026-05-06 14:01 49.63036 6.19531 38837 ft 449 kts 145°
2026-05-06 14:01 49.58179 6.25393 38831 ft 449 kts 145°
2026-05-06 14:02 49.53332 6.31233 38818 ft 448 kts 145°
2026-05-06 14:02 49.48393 6.37159 38823 ft 447 kts 146°
2026-05-06 14:03 49.43092 6.41830 38822 ft 441 kts 159°
2026-05-06 14:03 49.37456 6.45543 38807 ft 441 kts 160°
2026-05-06 14:04 49.31828 6.49277 38808 ft 441 kts 159°
2026-05-06 14:04 49.26213 6.53054 38809 ft 441 kts 159°
2026-05-06 14:05 49.20606 6.56836 38812 ft 440 kts 159°
2026-05-06 14:05 49.15038 6.60584 38815 ft 440 kts 159°
2026-05-06 14:06 49.09427 6.64350 38794 ft 440 kts 159°
2026-05-06 14:06 49.03801 6.68119 38813 ft 440 kts 159°
2026-05-06 14:07 48.98218 6.71846 38815 ft 441 kts 159°
2026-05-06 14:07 48.92600 6.75656 38810 ft 443 kts 159°
2026-05-06 14:08 48.86979 6.79502 38815 ft 444 kts 159°
2026-05-06 14:08 48.81342 6.83350 38814 ft 445 kts 159°
2026-05-06 14:09 48.75685 6.87197 38822 ft 446 kts 159°
2026-05-06 14:09 48.70048 6.91018 38812 ft 447 kts 159°
2026-05-06 14:10 48.64373 6.94855 38815 ft 447 kts 159°
2026-05-06 14:10 48.58689 6.98689 38801 ft 447 kts 159°
2026-05-06 14:11 48.53087 7.02458 38816 ft 447 kts 159°
2026-05-06 14:11 48.47444 7.06246 38804 ft 447 kts 159°
2026-05-06 14:12 48.41768 7.10046 38824 ft 446 kts 160°
2026-05-06 14:12 48.36103 7.13829 38824 ft 445 kts 159°
2026-05-06 14:13 48.30436 7.17605 38831 ft 445 kts 159°
2026-05-06 14:13 48.24782 7.21363 38820 ft 445 kts 160°
2026-05-06 14:14 48.19167 7.25087 38823 ft 443 kts 160°
2026-05-06 14:14 48.13530 7.28816 38820 ft 443 kts 160°
2026-05-06 14:15 48.07880 7.32544 38839 ft 444 kts 160°
2026-05-06 14:15 48.02221 7.36269 38825 ft 445 kts 160°
2026-05-06 14:16 47.96561 7.39988 38834 ft 445 kts 160°
2026-05-06 14:16 47.90931 7.43677 38827 ft 445 kts 160°
2026-05-06 14:17 47.85270 7.47380 38843 ft 444 kts 160°
2026-05-06 14:17 47.79611 7.51075 38873 ft 444 kts 160°
2026-05-06 14:18 47.73958 7.54753 38881 ft 443 kts 160°
2026-05-06 14:18 47.68356 7.58595 38866 ft 444 kts 158°
2026-05-06 14:19 47.62784 7.62559 38882 ft 444 kts 158°
2026-05-06 14:19 47.57213 7.66510 38887 ft 444 kts 159°
2026-05-06 14:20 47.51625 7.70439 38887 ft 444 kts 159°
2026-05-06 14:20 47.46045 7.74343 38874 ft 444 kts 159°
2026-05-06 14:21 47.40468 7.78234 38872 ft 443 kts 159°
2026-05-06 14:21 47.34894 7.82113 38868 ft 443 kts 159°
2026-05-06 14:22 47.29326 7.85979 38870 ft 442 kts 159°
2026-05-06 14:22 47.23800 7.89808 38864 ft 441 kts 159°
2026-05-06 14:23 47.18259 7.93638 38875 ft 440 kts 159°
2026-05-06 14:23 47.12735 7.97448 38867 ft 438 kts 159°
2026-05-06 14:24 47.07348 8.01155 38880 ft 436 kts 159°
2026-05-06 14:24 47.01849 8.04930 38885 ft 435 kts 159°
2026-05-06 14:25 46.96417 8.08650 38890 ft 435 kts 159°
2026-05-06 14:25 46.90938 8.12394 38885 ft 434 kts 159°
2026-05-06 14:26 46.85459 8.16129 38908 ft 435 kts 159°
2026-05-06 14:26 46.79965 8.19867 38906 ft 436 kts 160°
2026-05-06 14:27 46.74457 8.23605 38913 ft 437 kts 160°
2026-05-06 14:27 46.68971 8.27320 38902 ft 438 kts 160°
2026-05-06 14:28 46.63389 8.31092 38906 ft 440 kts 160°
2026-05-06 14:28 46.57857 8.34822 38912 ft 442 kts 160°
2026-05-06 14:29 46.52269 8.38582 38898 ft 443 kts 160°
2026-05-06 14:29 46.46672 8.42339 38905 ft 443 kts 160°
2026-05-06 14:30 46.41077 8.46087 38885 ft 443 kts 160°
2026-05-06 14:30 46.35488 8.49822 38885 ft 442 kts 160°
2026-05-06 14:31 46.29911 8.53542 38893 ft 442 kts 160°
2026-05-06 14:31 46.24331 8.57255 38878 ft 441 kts 160°
2026-05-06 14:32 46.18714 8.60987 38890 ft 442 kts 160°
2026-05-06 14:32 46.13133 8.64684 38892 ft 441 kts 160°
2026-05-06 14:33 46.07865 8.69157 38905 ft 448 kts 147°
2026-05-06 14:33 46.02990 8.74772 38861 ft 449 kts 147°
2026-05-06 14:34 45.98175 8.80457 38868 ft 449 kts 146°
2026-05-06 14:34 45.93349 8.86157 38876 ft 449 kts 147°
2026-05-06 14:35 45.88524 8.91825 38879 ft 448 kts 146°
2026-05-06 14:35 45.83683 8.97488 38867 ft 449 kts 147°
2026-05-06 14:36 45.78958 9.03000 38863 ft 450 kts 147°
2026-05-06 14:36 45.74099 9.08656 38852 ft 450 kts 147°
2026-05-06 14:37 45.69230 9.14311 38827 ft 451 kts 147°
2026-05-06 14:37 45.64359 9.19957 38821 ft 450 kts 147°
2026-05-06 14:38 45.59497 9.25580 38792 ft 450 kts 147°
2026-05-06 14:38 45.54632 9.31192 38800 ft 449 kts 147°
2026-05-06 14:39 45.49781 9.36775 38799 ft 448 kts 147°
2026-05-06 14:39 45.47361 9.39556 39047 ft 447 kts 148°
2026-05-06 14:39 45.44944 9.42331 39041 ft 446 kts 148°
2026-05-06 14:40 45.40152 9.47821 39015 ft 444 kts 148°
2026-05-06 14:40 45.35335 9.53327 38966 ft 443 kts 148°
2026-05-06 14:41 45.30535 9.58802 38914 ft 442 kts 148°
2026-05-06 14:41 45.25747 9.64249 38866 ft 441 kts 148°
2026-05-06 14:42 45.20957 9.69688 38808 ft 441 kts 148°
2026-05-06 14:42 45.16948 9.74230 38821 ft 441 kts 148°
2026-05-06 14:43 45.12138 9.79668 38813 ft 442 kts 148°
2026-05-06 14:43 45.06534 9.85987 38828 ft 445 kts 148°
2026-05-06 14:44 45.01673 9.91457 38835 ft 448 kts 148°
2026-05-06 14:45 44.95138 9.98792 38818 ft 451 kts 148°
2026-05-06 14:45 44.90351 10.04152 38851 ft 452 kts 148°
2026-05-06 14:46 44.85410 10.09672 38860 ft 454 kts 148°
2026-05-06 14:46 44.80451 10.15200 38858 ft 455 kts 148°
2026-05-06 14:47 44.75485 10.20723 38856 ft 455 kts 148°
2026-05-06 14:47 44.70533 10.26224 38850 ft 448 kts 149°
2026-05-06 14:48 44.65699 10.31586 38878 ft 439 kts 149°
2026-05-06 14:48 44.60903 10.36879 38892 ft 438 kts 149°
2026-05-06 14:49 44.56145 10.42118 38909 ft 437 kts 149°
2026-05-06 14:49 44.51355 10.47384 38914 ft 438 kts 149°
2026-05-06 14:50 44.46553 10.52654 38920 ft 439 kts 149°
2026-05-06 14:50 44.41736 10.57929 38915 ft 440 kts 149°
2026-05-06 14:51 44.36912 10.63202 38921 ft 441 kts 149°
2026-05-06 14:51 44.32075 10.68478 38940 ft 442 kts 149°
2026-05-06 14:52 44.27238 10.73739 38570 ft 449 kts 150°
2026-05-06 14:52 44.24771 10.76419 37980 ft 446 kts 150°
2026-05-06 14:52 44.22355 10.79052 37418 ft 435 kts 150°
2026-05-06 14:52 44.19998 10.81619 36850 ft 426 kts 150°
2026-05-06 14:53 44.17685 10.84131 36279 ft 418 kts 150°
2026-05-06 14:53 44.15414 10.86589 35732 ft 409 kts 150°
2026-05-06 14:53 44.13185 10.88999 35116 ft 403 kts 151°
2026-05-06 14:53 44.10964 10.91392 34540 ft 405 kts 151°
2026-05-06 14:54 44.08709 10.93812 33893 ft 416 kts 150°
2026-05-06 14:54 44.06376 10.96317 33288 ft 430 kts 150°
2026-05-06 14:54 44.04019 10.98854 32818 ft 438 kts 149°
2026-05-06 14:54 44.01734 11.01411 32347 ft 436 kts 146°
2026-05-06 14:55 43.99515 11.04143 31914 ft 422 kts 146°
2026-05-06 14:55 43.97369 11.06848 31459 ft 411 kts 146°
2026-05-06 14:55 43.95283 11.09492 31007 ft 401 kts 146°
2026-05-06 14:55 43.93249 11.12063 30562 ft 391 kts 146°
2026-05-06 14:56 43.91239 11.14586 30175 ft 390 kts 146°
2026-05-06 14:56 43.89193 11.17129 29714 ft 402 kts 146°
2026-05-06 14:56 43.87071 11.19749 29221 ft 415 kts 146°
2026-05-06 14:56 43.84921 11.22408 28713 ft 420 kts 146°
2026-05-06 14:57 43.82787 11.25068 28277 ft 407 kts 146°
2026-05-06 14:57 43.80719 11.27653 27820 ft 394 kts 146°
2026-05-06 14:57 43.78706 11.30163 27366 ft 384 kts 147°
2026-05-06 14:57 43.76748 11.32596 26939 ft 373 kts 147°
2026-05-06 14:58 43.74831 11.34970 26520 ft 366 kts 148°
2026-05-06 14:58 43.72922 11.37321 26118 ft 371 kts 148°
2026-05-06 14:58 43.70947 11.39733 25698 ft 388 kts 147°
2026-05-06 14:58 43.68881 11.42252 25228 ft 402 kts 147°
2026-05-06 14:59 43.66820 11.44792 24734 ft 392 kts 147°
2026-05-06 14:59 43.64820 11.47273 24291 ft 381 kts 147°
2026-05-06 14:59 43.62874 11.49684 23847 ft 372 kts 147°
2026-05-06 14:59 43.60988 11.52010 23383 ft 365 kts 147°
2026-05-06 15:00 43.59110 11.54318 22903 ft 359 kts 147°
2026-05-06 15:00 43.57248 11.56599 22471 ft 359 kts 147°
2026-05-06 15:00 43.55341 11.58917 22074 ft 375 kts 147°
2026-05-06 15:00 43.53351 11.61333 21613 ft 383 kts 146°
2026-05-06 15:01 43.51390 11.63738 21137 ft 372 kts 146°
2026-05-06 15:01 43.49489 11.66075 20693 ft 361 kts 146°
2026-05-06 15:01 43.47637 11.68348 20260 ft 352 kts 145°
2026-05-06 15:01 43.45829 11.70558 19865 ft 345 kts 145°
2026-05-06 15:02 43.44049 11.72728 19466 ft 340 kts 145°
2026-05-06 15:02 43.42286 11.74871 19082 ft 348 kts 144°
2026-05-06 15:02 43.40420 11.77127 18682 ft 366 kts 144°
2026-05-06 15:02 43.38522 11.79433 18218 ft 360 kts 143°
2026-05-06 15:03 43.36678 11.81684 17742 ft 349 kts 144°
2026-05-06 15:03 43.34891 11.83864 17304 ft 339 kts 144°
2026-05-06 15:03 43.33150 11.85981 16898 ft 331 kts 144°
2026-05-06 15:03 43.31437 11.88057 16509 ft 325 kts 144°
2026-05-06 15:04 43.29749 11.90097 16129 ft 325 kts 144°
2026-05-06 15:04 43.28013 11.92201 15761 ft 342 kts 143°
2026-05-06 15:04 43.26342 11.94531 15238 ft 348 kts 138°
2026-05-06 15:04 43.24753 11.96975 14802 ft 338 kts 137°
2026-05-06 15:05 43.23222 11.99363 14396 ft 328 kts 138°
2026-05-06 15:05 43.21791 12.01570 14024 ft 321 kts 139°
2026-05-06 15:05 43.20304 12.03830 13700 ft 316 kts 139°
2026-05-06 15:05 43.18847 12.06026 13471 ft 308 kts 139°
2026-05-06 15:06 43.17392 12.08203 13372 ft 314 kts 139°
2026-05-06 15:06 43.15971 12.10504 13211 ft 318 kts 127°
2026-05-06 15:06 43.15201 12.13338 12900 ft 318 kts 107°
2026-05-06 15:06 43.14791 12.16270 12575 ft 310 kts 104°
2026-05-06 15:07 43.14429 12.19146 12248 ft 303 kts 104°
2026-05-06 15:07 43.14074 12.21978 11950 ft 301 kts 104°
2026-05-06 15:07 43.13717 12.24764 11659 ft 302 kts 104°
2026-05-06 15:07 43.13339 12.27648 11378 ft 313 kts 104°
2026-05-06 15:08 43.12947 12.30600 11074 ft 315 kts 104°
2026-05-06 15:08 43.12562 12.33502 10788 ft 304 kts 105°
2026-05-06 15:08 43.12194 12.36271 10665 ft 289 kts 104°
2026-05-06 15:08 43.11839 12.38917 10540 ft 276 kts 105°
2026-05-06 15:09 43.11496 12.41443 10415 ft 266 kts 105°
2026-05-06 15:09 43.11159 12.43915 10325 ft 262 kts 105°
2026-05-06 15:09 43.10783 12.46358 10229 ft 263 kts 115°
2026-05-06 15:09 43.09781 12.48324 10118 ft 245 kts 152°
2026-05-06 15:10 43.08261 12.49083 9889 ft 221 kts 185°
2026-05-06 15:10 43.06783 12.48823 9679 ft 213 kts 202°
2026-05-06 15:10 43.05422 12.48018 9448 ft 214 kts 210°
2026-05-06 15:10 43.04109 12.47105 9213 ft 211 kts 211°
2026-05-06 15:11 43.02801 12.46181 8973 ft 208 kts 211°
2026-05-06 15:11 43.01512 12.45275 8759 ft 210 kts 210°
2026-05-06 15:11 43.00218 12.44372 8528 ft 208 kts 210°
2026-05-06 15:11 42.98941 12.43485 8323 ft 206 kts 210°
2026-05-06 15:12 42.97654 12.42595 8076 ft 209 kts 210°
2026-05-06 15:12 42.96358 12.41702 7835 ft 206 kts 210°
2026-05-06 15:12 42.95074 12.40821 7618 ft 206 kts 209°
2026-05-06 15:12 42.93799 12.39947 7391 ft 204 kts 209°
2026-05-06 15:13 42.92528 12.39076 7135 ft 206 kts 209°
2026-05-06 15:13 42.91255 12.38206 6899 ft 202 kts 209°
2026-05-06 15:13 42.90002 12.37349 6662 ft 202 kts 209°
2026-05-06 15:13 42.88745 12.36489 6430 ft 204 kts 208°
2026-05-06 15:14 42.87449 12.35745 6198 ft 202 kts 192°
2026-05-06 15:14 42.86128 12.36105 6027 ft 200 kts 148°
2026-05-06 15:14 42.85365 12.37670 5843 ft 208 kts 105°
2026-05-06 15:14 42.85600 12.39607 5649 ft 214 kts 63°
2026-05-06 15:15 42.86529 12.41235 5306 ft 222 kts 46°
2026-05-06 15:15 42.87731 12.42518 5046 ft 217 kts 33°
2026-05-06 15:15 42.89010 12.43538 5010 ft 209 kts 28°
2026-05-06 15:15 42.90331 12.44333 4893 ft 210 kts 22°
2026-05-06 15:16 42.91659 12.45042 4681 ft 201 kts 18°
2026-05-06 15:16 42.92989 12.45558 4280 ft 197 kts 14°
2026-05-06 15:16 42.94280 12.45996 4020 ft 186 kts 15°
2026-05-06 15:16 42.95510 12.46427 3670 ft 180 kts 13°
2026-05-06 15:17 42.96738 12.46850 3296 ft 177 kts 13°
2026-05-06 15:17 42.97926 12.47264 3068 ft 177 kts 12°
2026-05-06 15:17 42.99085 12.47662 3018 ft 168 kts 14°
2026-05-06 15:17 43.00234 12.48089 2954 ft 173 kts 34°
2026-05-06 15:18 43.00683 12.49399 3114 ft 156 kts 98°
2026-05-06 15:18 43.01248 12.50745 2926 ft 177 kts 27°
2026-05-06 15:18 43.02510 12.50675 2999 ft 192 kts 317°
2026-05-06 15:18 43.03358 12.49385 3025 ft 183 kts 301°
2026-05-06 15:19 43.04459 12.48446 2993 ft 198 kts 349°
2026-05-06 15:19 43.05787 12.48890 3002 ft 201 kts 42°
2026-05-06 15:19 43.06643 12.50335 2950 ft 195 kts 55°
2026-05-06 15:19 43.07749 12.51353 2644 ft 195 kts 17°
2026-05-06 15:20 43.09066 12.51772 2292 ft 189 kts 12°
2026-05-06 15:20 43.10341 12.52195 1893 ft 192 kts 14°
2026-05-06 15:20 43.11580 12.52629 2005 ft 184 kts 15°
2026-05-06 15:20 43.12830 12.53073 1969 ft 186 kts 15°
2026-05-06 15:21 43.14046 12.53514 1909 ft 174 kts 15°
2026-05-06 15:21 43.15255 12.53958 2069 ft 204 kts 14°
2026-05-06 15:21 43.16737 12.54499 2650 ft 233 kts 14°
2026-05-06 15:21 43.18329 12.55076 3474 ft 238 kts 15°
2026-05-06 15:22 43.19946 12.55676 4335 ft 246 kts 15°
2026-05-06 15:22 43.21607 12.56331 4796 ft 249 kts 13°
2026-05-06 15:22 43.23278 12.56451 4977 ft 236 kts 341°
2026-05-06 15:22 43.24665 12.55458 4996 ft 218 kts 307°
2026-05-06 15:23 43.25367 12.53719 4970 ft 204 kts 273°
2026-05-06 15:23 43.25262 12.51853 4990 ft 200 kts 252°
2026-05-06 15:23 43.24931 12.50011 5000 ft 201 kts 251°
2026-05-06 15:23 43.24569 12.48147 4984 ft 199 kts 250°
2026-05-06 15:24 43.24193 12.46346 4984 ft 194 kts 250°
2026-05-06 15:24 43.23830 12.44580 4984 ft 191 kts 250°
2026-05-06 15:24 43.23390 12.42876 4985 ft 191 kts 231°
2026-05-06 15:24 43.22242 12.41932 5156 ft 209 kts 191°
2026-05-06 15:25 43.20738 12.41748 5313 ft 229 kts 189°
2026-05-06 15:25 43.19104 12.41529 5540 ft 239 kts 189°
2026-05-06 15:25 43.17415 12.41283 5839 ft 249 kts 189°
2026-05-06 15:25 43.15711 12.41018 5948 ft 244 kts 190°
2026-05-06 15:26 43.13984 12.40735 6008 ft 254 kts 189°
2026-05-06 15:26 43.12208 12.40432 6007 ft 258 kts 190°
2026-05-06 15:26 43.10439 12.40125 6011 ft 254 kts 190°
2026-05-06 15:26 43.08704 12.39819 6015 ft 250 kts 190°
2026-05-06 15:27 43.06939 12.39503 5999 ft 256 kts 190°
2026-05-06 15:27 43.05184 12.39188 5988 ft 253 kts 191°
2026-05-06 15:27 43.03428 12.38866 5999 ft 257 kts 191°
2026-05-06 15:27 43.01653 12.38540 6011 ft 257 kts 191°
2026-05-06 15:28 42.99903 12.38218 5944 ft 257 kts 190°
2026-05-06 15:28 42.98162 12.37901 5664 ft 247 kts 191°
2026-05-06 15:28 42.96478 12.37594 5404 ft 242 kts 190°
2026-05-06 15:28 42.94825 12.37292 5154 ft 239 kts 190°
2026-05-06 15:29 42.93172 12.36988 5049 ft 241 kts 190°
2026-05-06 15:29 42.91494 12.36679 5018 ft 243 kts 190°
2026-05-06 15:29 42.89839 12.36376 4995 ft 237 kts 190°
2026-05-06 15:29 42.88199 12.36075 4991 ft 239 kts 189°
2026-05-06 15:30 42.86555 12.36258 4992 ft 238 kts 160°
2026-05-06 15:30 42.85378 12.37696 4984 ft 225 kts 122°
2026-05-06 15:30 42.85184 12.39729 4968 ft 217 kts 78°
2026-05-06 15:30 42.86023 12.41434 5029 ft 225 kts 40°
2026-05-06 15:31 42.87308 12.42613 4948 ft 226 kts 31°
2026-05-06 15:31 42.88715 12.43617 4611 ft 229 kts 24°
2026-05-06 15:31 42.90163 12.44433 4327 ft 220 kts 23°
2026-05-06 15:32 42.93045 12.45579 3883 ft 216 kts 14°
2026-05-06 15:32 42.94498 12.46071 3647 ft 213 kts 15°
2026-05-06 15:32 42.95904 12.46562 3418 ft 202 kts 13°
2026-05-06 15:32 42.97242 12.47024 3379 ft 198 kts 13°
2026-05-06 15:33 42.98609 12.47498 2974 ft 199 kts 14°
2026-05-06 15:33 42.99950 12.47875 2793 ft 204 kts 15°
2026-05-06 15:33 43.01326 12.48521 2479 ft 210 kts 22°
2026-05-06 15:33 43.02719 12.48961 2135 ft 202 kts
2026-05-06 15:34 43.04111 12.49398 1849 ft 205 kts 15°
2026-05-06 15:34 43.05473 12.49892 1515 ft 197 kts 14°
2026-05-06 15:34 43.06758 12.50340 1207 ft 186 kts 14°
2026-05-06 15:34 43.07978 12.50762 944 ft 180 kts 14°
2026-05-06 15:35 43.09187 12.51184 720 ft 176 kts 13°
2026-05-06 15:35 43.10333 12.51595 669 ft 152 kts 18°
2026-05-06 15:35 43.10849 12.51795 668 ft 5 kts
2026-05-06 15:35 43.10880 12.51767 668 ft 7 kts 265°
2026-05-06 15:36 43.10840 12.51744 668 ft 7 kts 186°
2026-05-06 15:36 43.10795 12.51733 668 ft 7 kts 192°
2026-05-06 15:36 43.10760 12.51697 668 ft 8 kts 266°
2026-05-06 15:36 43.10774 12.51612 666 ft 10 kts 283°
2026-05-06 15:37 43.10768 12.51514 667 ft 11 kts 231°
2026-05-06 15:37 43.10700 12.51479 668 ft 4 kts 193°
2026-05-06 15:37 43.10665 12.51467 668 ft 6 kts 193°
2026-05-06 15:37 43.10618 12.51452 668 ft 8 kts 193°
2026-05-06 15:38 43.10564 12.51433 668 ft 9 kts 194°
2026-05-06 15:38 43.10502 12.51412 667 ft 10 kts 197°
2026-05-06 15:38 43.10431 12.51385 668 ft 11 kts 195°
2026-05-06 15:38 43.10351 12.51356 668 ft 13 kts 194°
2026-05-06 15:39 43.10263 12.51325 668 ft 14 kts 194°
2026-05-06 15:39 43.10170 12.51293 668 ft 14 kts 194°
2026-05-06 15:39 43.10074 12.51260 668 ft 15 kts 194°
2026-05-06 15:39 43.09969 12.51223 668 ft 16 kts 194°
2026-05-06 15:40 43.09857 12.51184 668 ft 17 kts 194°
2026-05-06 15:40 43.09764 12.51136 667 ft 14 kts 233°
2026-05-06 15:40 43.09723 12.51016 668 ft 15 kts 245°
2026-05-06 15:40 43.09680 12.50884 668 ft 16 kts 246°
2026-05-06 15:41 43.09633 12.50742 665 ft 17 kts 246°
2026-05-06 15:41 43.09584 12.50593 666 ft 17 kts 246°
2026-05-06 15:41 43.09550 12.50499 667 ft 0 kts 239°
2026-05-06 15:41 43.09548 12.50496 668 ft 2 kts 239°
2026-05-06 15:42 43.09533 12.50454 668 ft 7 kts 248°
2026-05-06 15:42 43.09514 12.50387 667 ft 0 kts 249°
2026-05-06 15:42 43.09514 12.50385 667 ft 0 kts 249°